Weather Roundup
Issued by NWS Chicago, IL

Home | Current Version | Previous Version | Graphics & Text | Print | Product List | Glossary On
Versions: 1 2 3 4 5 6 7 8 9 10 11 12 13 14 15 16 17 18 19 20 21 22 23 24 25 26 27 28 29 30 31 32 33 34 35 36 37 38 39 40 41 42 43 44 45 46 47 48 49 50
000
NZUS59 KLOT 222010
HRRLOT

CHICAGO AREA WEATHER ROUNDUP
NATIONAL WEATHER SERVICE CHICAGO/ROMEOVILLE IL
200 PM CST SAT NOV 22 2014

NOTE: "FAIR" INDICATES FEW OR NO CLOUDS BELOW 12,000 FEET WITH NO
SIGNIFICANT WEATHER AND/OR OBSTRUCTIONS TO VISIBILITY.

* THESE STATIONS ARE NOT UNDER NWS QUALITY CONTROL. THEY ALSO MAY NOT
  REPORT WEATHER SUCH AS PRECIPITATION OR FOG.

ILZ005-006-012>014-019>023-222100-
NORTHEAST ILLINOIS

CITY           SKY/WX    TMP DP  RH WIND       PRES   REMARKS
OHARE          CLOUDY    47  42  83 S12G22    29.87F
MIDWAY         CLOUDY    50  43  77 SW16G22   29.89F
AURORA         CLOUDY    50  43  77 S9        29.88F
LANSING*       CLOUDY    47  44  89 SW8       29.92F
JOLIET*        CLOUDY    49  44  82 SW8       29.90F
WAUKEGAN       CLOUDY    44  41  89 S12       29.85F FOG
DUPAGE AIRPORT CLOUDY    47  43  86 S10       29.87F
WHEELING       CLOUDY    47  42  83 S12       29.88F
KANKAKEE*      CLOUDY    53  48  84 S16G23    29.92F
MORRIS*        CLOUDY    51  46  84 SW10      29.88F
LEWIS AIRPORT* CLOUDY    49  43  80 SW12G17   29.89F
NORTHERLY IS     N/A     47  41  80 SW9         N/A
$$

WIZ051-052-058>065-066-070>072-222100-
SOUTHEAST WISCONSIN

CITY           SKY/WX    TMP DP  RH WIND       PRES   REMARKS
MILWAUKEE      CLOUDY    44  42  93 SW13      29.82F FOG
KENOSHA*       CLOUDY    44  42  93 S13       29.84F FOG
RACINE*        CLOUDY    43  41  93 S10       29.85F FOG
BURLINGTON     CLOUDY    42  42  99 S9        29.83S FOG
WAUKESHA       FOG       43  39  87 S9        29.82F VSB 1
WEST BEND      FOG       41  39  93 S7        29.79F VSB 1
$$

INZ001>003-010>013-019-020-222100-
NORTHWEST INDIANA

CITY           SKY/WX    TMP DP  RH WIND       PRES   REMARKS
GARY*          CLOUDY    48  43  81 S6        29.92F
MICHIGAN CITY* NOT AVBL
RENSSELAER*    NOT AVBL
VALPARAISO     CLOUDY    47  44  90 S8        29.93F
$$

LMZ740>746-222100-
SOUTHERN LAKE MICHIGAN

STATION/POSITION TIME  SKY/WX   TEMP WIND        PRES    VSBY
                                AIR  DIR/SP/G
                 (UTC)          (F)  (DEG/KT/KT) (MB)    (MI)
HARRISON CRIB    2000            46  200/ 22/ 26   N/A
BURNHAM HARBOR   2000            48  200/ 13/ 15   N/A
CALUMET HARBOR   2000            47  190/ 11/ 16 1011.3F
BURNS HARBOR     NOT AVBL
MICHIGAN CITY    2000            46  160/ 15/ 20   N/A
$$

ABBREVIATIONS USED IN REMARKS
   TC - TEMPERATURE IN CELSIUS
  WCI - WIND CHILL INDEX
   HX - HEAT INDEX
  VSB - VISIBILITY
$$



USA.gov is the U.S. government's official web portal to all federal, state and local government web resources and services.